Location: Antioch Baptist Church
(32.6696°N, 85.7327°W)
Time: 21:15:58
(UTC+00:00)

Cosmos 2278 Rocket - Pass Details

Date: 14 July 2020
Orbit: 841 x 845 km, 71.0° (Epoch: 13 August)

Event Time Altitude Azimuth Distance (km) Brightness Sun altitude
Rises 03:40:20 0° 328° (NNW) 3,405 6.6 -27.6°
Reaches altitude 10° 03:42:59 10° 319° (NW) 2,465 5.6 -27.9°
Maximum altitude 03:48:00 34° 257° (WSW) 1,365 3.4 -28.5°
Enters shadow 03:48:46 32° 240° (WSW) 1,400 3.3 -28.6°
